Location: Unspecified
(0.0000°N, 0.0000°E)
Time: 03:33:52
(UTC+00:00)

GEESAT 6-02 - Pass Details

Date: 23 November 2025
Orbit: 598 x 616 km, 50.0° (Epoch: 07 December)

Event Time Altitude Azimuth Distance (km) Brightness Sun altitude
Rises 19:03:29 0° 340° (NNW) 2,820 ? -18.0°
Reaches altitude 10° 19:05:59 10° 352° (N) 1,920 ? -18.6°
Enters shadow 19:07:35 19° 6° (N) 1,430 ? -18.9°
